TimeEDT,TemperatureF,Dew PointF,Humidity,Sea Level PressureIn,VisibilityMPH,Wind Direction,Wind SpeedMPH,Gust SpeedMPH,PrecipitationIn,Events,Conditions,WindDirDegrees,DateUTC
12:52 AM,61.0,59.0,93,30.02,5.0,Calm,Calm,-,N/A,,Clear,0,2013-08-20 04:52:00
1:52 AM,59.0,57.0,93,30.03,8.0,Calm,Calm,-,N/A,,Partly Cloudy,0,2013-08-20 05:52:00
2:26 AM,57.2,55.4,94,30.03,1.2,Calm,Calm,-,N/A,,Scattered Clouds,0,2013-08-20 06:26:00
2:28 AM,57.2,55.4,94,30.03,0.8,Calm,Calm,-,N/A,,Mist,0,2013-08-20 06:28:00
2:45 AM,57.2,55.4,94,30.03,1.2,Calm,Calm,-,N/A,,Scattered Clouds,0,2013-08-20 06:45:00
2:47 AM,57.2,55.4,94,30.03,2.5,Calm,Calm,-,N/A,,Scattered Clouds,0,2013-08-20 06:47:00
2:52 AM,57.0,55.9,96,30.03,5.0,Calm,Calm,-,N/A,,Scattered Clouds,0,2013-08-20 06:52:00
3:20 AM,55.4,55.4,100,30.03,1.8,Calm,Calm,-,N/A,,Clear,0,2013-08-20 07:20:00
3:25 AM,55.4,55.4,100,30.03,1.0,Calm,Calm,-,N/A,,Clear,0,2013-08-20 07:25:00
3:30 AM,55.4,55.4,100,30.03,1.5,Calm,Calm,-,N/A,,Clear,0,2013-08-20 07:30:00
3:34 AM,55.4,55.4,100,30.03,3.0,Calm,Calm,-,N/A,,Clear,0,2013-08-20 07:34:00
3:40 AM,55.4,55.4,100,30.04,1.5,Calm,Calm,-,N/A,,Clear,0,2013-08-20 07:40:00
3:42 AM,55.4,55.4,100,30.04,1.0,Calm,Calm,-,N/A,,Clear,0,2013-08-20 07:42:00
3:49 AM,55.4,55.4,100,30.04,0.5,Calm,Calm,-,N/A,Fog,Fog,0,2013-08-20 07:49:00
3:52 AM,55.9,55.0,97,30.04,0.5,Calm,Calm,-,N/A,Fog,Fog,0,2013-08-20 07:52:00
4:00 AM,55.4,55.4,100,30.04,1.2,Calm,Calm,-,N/A,,Clear,0,2013-08-20 08:00:00
4:08 AM,55.4,53.6,94,30.04,0.8,Calm,Calm,-,N/A,,Clear,0,2013-08-20 08:08:00
4:14 AM,55.4,53.6,94,30.04,1.5,Calm,Calm,-,N/A,,Partly Cloudy,0,2013-08-20 08:14:00
4:18 AM,55.4,53.6,94,30.04,3.0,Calm,Calm,-,N/A,,Partly Cloudy,0,2013-08-20 08:18:00
4:27 AM,55.4,53.6,94,30.04,1.8,Calm,Calm,-,N/A,,Partly Cloudy,0,2013-08-20 08:27:00
4:37 AM,55.4,53.6,94,30.04,1.0,Calm,Calm,-,N/A,,Mist,0,2013-08-20 08:37:00
4:50 AM,55.4,53.6,94,30.05,1.5,Calm,Calm,-,N/A,,Partly Cloudy,0,2013-08-20 08:50:00
4:52 AM,55.0,54.0,96,30.04,4.0,Calm,Calm,-,N/A,,Partly Cloudy,0,2013-08-20 08:52:00
5:36 AM,53.6,53.6,100,30.06,1.8,Calm,Calm,-,N/A,,Clear,0,2013-08-20 09:36:00
5:43 AM,53.6,51.8,94,30.06,4.0,Calm,Calm,-,N/A,,Clear,0,2013-08-20 09:43:00
5:52 AM,54.0,53.1,97,30.06,8.0,Calm,Calm,-,N/A,,Clear,0,2013-08-20 09:52:00
6:22 AM,53.6,53.6,100,30.07,2.5,Calm,Calm,-,N/A,,Clear,0,2013-08-20 10:22:00
6:26 AM,53.6,53.6,100,30.07,3.0,Calm,Calm,-,N/A,,Partly Cloudy,0,2013-08-20 10:26:00
6:52 AM,55.0,53.1,93,30.08,10.0,Calm,Calm,-,N/A,,Scattered Clouds,0,2013-08-20 10:52:00
7:10 AM,55.4,55.4,100,30.08,5.0,Calm,Calm,-,N/A,,Mostly Cloudy,0,2013-08-20 11:10:00
7:16 AM,55.4,55.4,100,30.09,1.2,Calm,Calm,-,N/A,,Mostly Cloudy,0,2013-08-20 11:16:00
7:23 AM,55.4,55.4,100,30.09,0.2,Calm,Calm,-,N/A,Fog,Fog,0,2013-08-20 11:23:00
7:37 AM,57.2,55.4,94,30.09,1.2,Calm,Calm,-,N/A,,Mostly Cloudy,0,2013-08-20 11:37:00
7:40 AM,57.2,55.4,94,30.09,2.0,Calm,Calm,-,N/A,,Mostly Cloudy,0,2013-08-20 11:40:00
7:47 AM,57.2,55.4,94,30.09,7.0,Calm,Calm,-,N/A,,Scattered Clouds,0,2013-08-20 11:47:00
7:52 AM,59.0,57.0,93,30.09,7.0,Calm,Calm,-,N/A,,Scattered Clouds,0,2013-08-20 11:52:00
8:52 AM,64.9,59.0,81,30.09,10.0,Calm,Calm,-,N/A,,Clear,0,2013-08-20 12:52:00
9:52 AM,73.0,57.9,59,30.10,10.0,Variable,3.5,-,N/A,,Clear,0,2013-08-20 13:52:00
10:52 AM,75.9,57.0,52,30.10,10.0,WNW,4.6,-,N/A,,Clear,300,2013-08-20 14:52:00
11:52 AM,79.0,57.0,47,30.09,10.0,Variable,6.9,-,N/A,,Clear,0,2013-08-20 15:52:00
12:52 PM,81.0,55.9,42,30.08,10.0,NW,9.2,-,N/A,,Clear,310,2013-08-20 16:52:00
1:52 PM,82.9,57.0,41,30.07,10.0,Variable,3.5,-,N/A,,Partly Cloudy,0,2013-08-20 17:52:00
2:52 PM,84.9,57.0,38,30.06,10.0,West,5.8,-,N/A,,Clear,280,2013-08-20 18:52:00
3:52 PM,84.0,59.0,43,30.07,10.0,WNW,11.5,19.6,N/A,,Clear,300,2013-08-20 19:52:00
4:52 PM,84.9,59.0,41,30.06,10.0,West,6.9,-,N/A,,Mostly Cloudy,280,2013-08-20 20:52:00
5:52 PM,82.0,57.0,42,30.07,10.0,West,9.2,-,N/A,,Clear,270,2013-08-20 21:52:00
6:52 PM,79.0,59.0,50,30.08,10.0,West,3.5,-,N/A,,Clear,260,2013-08-20 22:52:00
7:52 PM,73.9,60.1,62,30.09,10.0,NW,3.5,-,N/A,,Clear,320,2013-08-20 23:52:00
8:52 PM,68.0,62.1,81,30.11,10.0,Calm,Calm,-,N/A,,Clear,0,2013-08-21 00:52:00
9:52 PM,64.9,61.0,87,30.12,10.0,Calm,Calm,-,N/A,,Clear,0,2013-08-21 01:52:00
10:52 PM,63.0,60.1,90,30.12,10.0,Calm,Calm,-,N/A,,Clear,0,2013-08-21 02:52:00
11:52 PM,61.0,59.0,93,30.13,9.0,Calm,Calm,-,N/A,,Clear,0,2013-08-21 03:52:00